Overview Statistics Trail Chart Weather Telemetry Raw packets
 

This is the latest recevied weather packets stored in our database for station/object EA4URC-10. If no packets are shown the sender has not sent any weather packets the latest 10 day(s).

<< 14 15 16 17 18 19 20 >>
Time Temp. Humidity Pressure Rain* Wind** Luminosity Snow
1787935180 21.67° C 21% 1036.3 hPa - - - -
1787933380 22.22° C 20% 1036.3 hPa - - - -
1787931579 24.44° C 15% 1036.5 hPa - - - -
1787929779 26.11° C 14% 1036.4 hPa - - - -
1787927984 25.56° C 13% 1036.6 hPa - - - -
1787926184 26.11° C 15% 1036.6 hPa - - - -
1787924383 26.11° C 13% 1036.9 hPa - - - -
1787922583 26.11° C 15% 1037 hPa - - - -
1787920782 26.11° C 17% 1037.1 hPa - - - -
1787918981 25° C 21% 1037.1 hPa - - - -
1787917181 23.89° C 23% 1037.1 hPa - - - -
1787915380 24.44° C 27% 1037.3 hPa - - - -
1787913580 22.22° C 30% 1037.4 hPa - - - -
1787911779 21.11° C 31% 1037.1 hPa - - - -
1787909979 20° C 34% 1037.2 hPa - - - -
1787908178 17.22° C 43% 1036.8 hPa - - - -
1787906384 17.22° C 48% 1036.8 hPa - - - -
1787904583 15° C 60% 1036.6 hPa - - - -
1787902783 13.33° C 76% 1036.5 hPa - - - -
1787900982 11.11° C 95% 1036.1 hPa - - - -
1787899182 9.44° C 100% 1035.6 hPa - - - -
1787897381 8.33° C 100% 1035.6 hPa - - - -
1787895580 8.33° C 100% 1035.2 hPa - - - -
1787893780 8.33° C 100% 1035.1 hPa - - - -
1787891979 8.89° C 100% 1035.2 hPa - - - -

* Rain since midnight (hover to see other rain measurements)
** Current wind speed in m/s (hover to see current wind gust speed)